Location: Poughquag
(41.6090°N, 73.6820°W)
Time: 13:36:20
(UTC-04:00)

Altair - Pass Details

Date: 29 May 2020
Orbit: 1501 x 1683 km, 47.2° (Epoch: 05 July)

Event Time Altitude Azimuth Distance (km) Brightness Sun altitude
Rises 21:02:44 0° 191° (SSW) 4,785 9.8 -7.3°
Reaches altitude 10° 21:06:27 10° 180° (S) 3,831 9.2 -7.9°
Maximum altitude 21:14:06 26° 128° (SE) 2,803 8.3 -9.0°
Drops below altitude 10° 21:21:53 10° 77° (ENE) 3,933 9.3 -10.1°
Sets 21:25:43 0° 66° (ENE) 4,935 9.9 -10.6°
